Zurück zum Katalog

KUIPER-00432

AktivKommunikationLEO
NORAD 68937·PAYLOAD·🇺🇸 United States

Gestartet Apr 30, 2026 von Guiana Space Centre

Loading…

Nächste Überflüge (nächste 24 Stunden)

TLE

AktuellSource: CelesTrak SupGP

Epoche: Sep 14, 2026, 22:23 UTC

1 68937C 26098U   26257.93273148  .00004028  00000+0  52734-3 0  2571
2 68937  51.9007  18.6924 0000522 103.8194 142.6767 14.79919038    17

Verfolge KUIPER-00432 in Echtzeit mit AllMySat

Download on the App Store